7 * 24
多渠道服务支持
STARLINK-32521 是 SpaceX 星链(Starlink)卫星互联网项目中的一颗低轨通信卫星。该卫星属于星链计划的第三批发射任务,旨在为全球用户提供高速、低延迟的互联网服务。它运行在约 550 公里的近地轨道,采用先进的通信技术,支持宽带数据传输。星链项目通过部署数千颗卫星,构建全球覆盖的卫星网络,特别服务于偏远和网络基础设施薄弱的地区。STARLINK-32521 的发射和运行有助于提升星链系统的整体性能和可靠性。
美国
(US)
| 数据来源 | 国际轨道数据 |
| 星历时间: | 2025-12-20T00:21:53+0800 18小时前 查看轨道信息 |
| 半长轴: | 6861.14km |
| 偏心率: | 0.0000384 |
| 轨道倾角: | 42.994° |
| 近地点辐角 | 285.558° |
| 升交点赤经 | 224.382° |
| 平近点角 | 74.523° |
| 近地点: | 482.739km |
| 远地点: | 483.267km |
| 周期: | 94.266分钟 |
| 每日圈数: | 15.275957 |